Location: Kumla
(59.1265°N, 15.1401°E)
Time: 06:25:39
(UTC+01:00)

Vanguard 2 Rocket - Pass Details

Date: 09 December 2023
Orbit: 555 x 3309 km, 32.9° (Epoch: 03 March)

Event Time Altitude Azimuth Distance (km) Brightness Sun altitude
Rises 14:36:54 0° 229° (SW) 6,256 13.4 1.3°
Reaches altitude 10° 14:41:38 10° 219° (SW) 5,588 13.4 0.9°
Maximum altitude 14:55:08 28° 170° (S) 4,846 11.1 -0.2°
Drops below altitude 10° 15:09:56 10° 123° (ESE) 6,158 11.0 -1.5°
Sets 15:15:30 0° 113° (ESE) 6,982 11.2 -2.0°
